OBJECT XL, 65732

Orbit data source: Space-Track

You're viewing an Uncataloged Satellite

Recently launched and/or uncataloged satellites may have evolving metadata. Metadata may include but not limited to: Owner, Maufacturer, Bus, Motor, and Mission.

OBJECT XL, 65732 is a satellite owned by Ryman Sat (JP) in LEO that was delivered to and deployed from the ISS. Unknown objects in Earth's orbit typically refer to objects detected orbiting the Earth but have not yet been identified or cataloged. These objects could be anything from previously untracked satellites, spent rocket stages, debris from satellite collisions, or even natural meteoroids temporarily captured by Earth's gravity.

Loading next visibility...
Identifier
65732, 1998-067XL
Orbit
LEO
Country
Flag of JPJP / JPN
Related business
Flag of JPRymanSat Project (JP)
Manufacturer
Ryman Sat
Mission
Operational spacecraft
Bus & Motor
CUBESAT 1U, Unknown motor
Mass
1 kg wet, 1 kg dry
Launch date (UTC)
1998-11-20 (27 years ago)
Launch vehicle
FALCON 9
Launch site
Tyuratam Missile And Space Complex (TTMTR)
Object type
Unknown
Shape & HBR
Unknown shape, 1.1 m
Radar Cross Section
RCS unknown

Expand to show TLE details & history
Last TLE update: 14 hours ago

TLE from 14 hours ago
0 OBJECT XL
1 65732U 98067XL  25287.79253652  .00072164  00000-0  10376-2 0  9995
2 65732  51.6310  73.6591 0002449 323.7003  36.3822 15.55409228  3951
Epoch: 2025-10-14T19:01Z
TLE epoch observation values (Epoch: 2025-10-14T19:01:15.155Z)
Latitude
0.00001°
Longitude
124.77009°
Altitude
400.369 km
Speed
7.672 km/s
True Right ascension
04h 54m 38s
True Declination
0° 00' 00"
Sunlit
Object was in full shadow at epoch
Visualization orbit readout
Latitude
Unknown
Longitude
Unknown
Altitude
Unknown
Speed
Unknown
Apparent Right ascension
Unknown
Apparent Declination
Unknown
Sunlit
N/A
Visualization observer readout
Local Sidereal Time
03:17:45
Azimuth
Unknown
Elevation
Unknown
Doppler factor
Unknown
Orbital elements
Apogee altitude
403.134 km
Perigee altitude
399.814 km
Semi-major axis
6,779.611 km
Eccentricity
0.00024
Inclination
51.631°
RAAN
73.6591°
Arg. of periapsis
323.7003°
True anomaly
36.39885°
Mean anomaly
36.3822°
Eccentric anomaly
36.39052°
Mean motion
3.88809 °/min
Orbital period
92.59 mins
BSTAR
0.0010376
Loading maneuver chart data...
Computing Atmospheric mass density...
Loading historical data...
Loading historical data...
Loading historical data...
Loading historical data...
Loading historical data...
Loading historical data...
Loading historical data...

Documentation

Showing up to 5 results
|